Previsão horária em Almáskamarás

Hoje, 18 Janeiro, Segunda-feira

Tempo Temperatura Precipitação Vento Pressão Humidade
00:00 -6°C° 0 mm 1 m/s 757 mmHg 89%
01:00 -6°C° 0 mm 1 m/s 757 mmHg 92%
02:00 -7°C° 0 mm 1 m/s 757 mmHg 93%
03:00 -7°C° 0 mm 1 m/s 757 mmHg 93%
04:00 -7°C° 0 mm 1 m/s 757 mmHg 94%
05:00 -7°C° 0 mm 1 m/s 757 mmHg 93%
06:00 -7°C° 0 mm 1 m/s 758 mmHg 93%
07:00 -7°C° 0 mm 1 m/s 758 mmHg 93%
08:00 -6°C° 0 mm 1 m/s 758 mmHg 89%
09:00 -6°C° 0 mm 2 m/s 758 mmHg 85%
10:00 -6°C° 0 mm 2 m/s 759 mmHg 81%
11:00 -5°C° 0 mm 2 m/s 759 mmHg 76%
12:00 -5°C° 0 mm 2 m/s 758 mmHg 72%
13:00 -5°C° 0 mm 3 m/s 758 mmHg 68%
14:00 -5°C° 0 mm 2 m/s 758 mmHg 71%
15:00 -5°C° 0 mm 2 m/s 758 mmHg 74%
16:00 -3°C° 0 mm 1 m/s 759 mmHg 77%
17:00 -4°C° 0 mm 1 m/s 759 mmHg 80%
18:00 -4°C° 0 mm 1 m/s 759 mmHg 83%
19:00 -4°C° 0 mm 1 m/s 759 mmHg 86%
20:00 -6°C° 0 mm 2 m/s 759 mmHg 88%
21:00 -5°C° 0 mm 2 m/s 759 mmHg 91%
22:00 -5°C° 0 mm 2 m/s 759 mmHg 93%
23:00 -6°C° 0.1 mm 3 m/s 760 mmHg 94%

Amanhã, 19 Janeiro, Terça-feira

Tempo Temperatura Precipitação Vento Pressão Humidade
00:00 -6°C° 0.1 mm 3 m/s 760 mmHg 95%
01:00 -6°C° 0.1 mm 3 m/s 760 mmHg 96%
02:00 -6°C° 0.2 mm 3 m/s 760 mmHg 96%
03:00 -6°C° 0.2 mm 3 m/s 759 mmHg 96%
04:00 -5°C° 0.2 mm 3 m/s 759 mmHg 96%
05:00 -5°C° 0.1 mm 3 m/s 759 mmHg 96%
06:00 -5°C° 0.1 mm 3 m/s 759 mmHg 96%
07:00 -5°C° 0.1 mm 3 m/s 759 mmHg 96%
08:00 -5°C° 0.5 mm 3 m/s 759 mmHg 96%
09:00 -4°C° 0.5 mm 3 m/s 759 mmHg 96%
10:00 -2°C° 0.5 mm 3 m/s 760 mmHg 95%
11:00 -2°C° 0.3 mm 3 m/s 759 mmHg 95%
12:00 -1°C° 0.3 mm 3 m/s 759 mmHg 94%
13:00 -1°C° 0.3 mm 3 m/s 759 mmHg 93%
14:00 -2°C° 0 mm 4 m/s 758 mmHg 92%
15:00 -2°C° 0 mm 4 m/s 758 mmHg 92%
16:00 -3°C° 0 mm 4 m/s 758 mmHg 91%
17:00 -3°C° 0 mm 4 m/s 758 mmHg 91%
18:00 -4°C° 0 mm 4 m/s 757 mmHg 92%
19:00 -5°C° 0 mm 5 m/s 757 mmHg 92%
20:00 -5°C° 0 mm 5 m/s 757 mmHg 91%
21:00 -4°C° 0 mm 5 m/s 757 mmHg 89%
22:00 -4°C° 0 mm 5 m/s 757 mmHg 88%
23:00 -4°C° 0 mm 5 m/s 757 mmHg 87%

Depois de amanhã, 20 Janeiro, Quarta-feira

Tempo Temperatura Precipitação Vento Pressão Humidade
00:00 -4°C° 0 mm 5 m/s 756 mmHg 86%
01:00 -4°C° 0 mm 5 m/s 756 mmHg 85%
02:00 -2°C° 0 mm 5 m/s 756 mmHg 85%
03:00 -2°C° 0 mm 5 m/s 756 mmHg 85%
04:00 -3°C° 0 mm 6 m/s 756 mmHg 85%
05:00 -2°C° 0.1 mm 5 m/s 756 mmHg 86%
06:00 -2°C° 0.1 mm 5 m/s 756 mmHg 87%
07:00 -1°C° 0.1 mm 5 m/s 756 mmHg 88%
08:00 -1°C° 0.1 mm 5 m/s 756 mmHg 87%
09:00 -1°C° 0.1 mm 5 m/s 757 mmHg 87%
10:00 -1°C° 0.1 mm 5 m/s 757 mmHg 86%
11:00 0°C° 0 mm 5 m/s 757 mmHg 86%
12:00 +1°C° 0 mm 5 m/s 757 mmHg 86%
13:00 +1°C° 0 mm 5 m/s 756 mmHg 86%
14:00 +1°C° 0 mm 5 m/s 756 mmHg 85%
15:00 0°C° 0 mm 5 m/s 756 mmHg 85%
16:00 -1°C° 0 mm 5 m/s 756 mmHg 85%
17:00 -1°C° 0 mm 5 m/s 756 mmHg 85%
18:00 -1°C° 0 mm 5 m/s 756 mmHg 84%
19:00 -2°C° 0 mm 5 m/s 756 mmHg 84%
20:00 -2°C° 0 mm 5 m/s 756 mmHg 84%
21:00 -1°C° 0 mm 5 m/s 756 mmHg 84%
22:00 -1°C° 0 mm 5 m/s 756 mmHg 84%
23:00 -1°C° 0 mm 5 m/s 756 mmHg 84%

21 Janeiro, Quinta-feira

Tempo Temperatura Precipitação Vento Pressão Humidade
00:00 -2°C° 0 mm 6 m/s 756 mmHg 84%
01:00 -2°C° 0 mm 6 m/s 756 mmHg 84%
02:00 -1°C° 0 mm 6 m/s 755 mmHg 83%
03:00 -1°C° 0 mm 6 m/s 755 mmHg 83%
04:00 -1°C° 0 mm 6 m/s 755 mmHg 82%
05:00 -1°C° 0 mm 6 m/s 755 mmHg 81%
06:00 -1°C° 0 mm 6 m/s 755 mmHg 80%
07:00 -1°C° 0 mm 6 m/s 755 mmHg 80%
08:00 -1°C° 0 mm 6 m/s 754 mmHg 80%
09:00 +1°C° 0 mm 6 m/s 754 mmHg 80%
10:00 +1°C° 0 mm 6 m/s 754 mmHg 81%
11:00 +2°C° 0 mm 6 m/s 754 mmHg 81%
12:00 +2°C° 0 mm 6 m/s 754 mmHg 81%
13:00 +3°C° 0 mm 6 m/s 754 mmHg 80%
14:00 +2°C° 0 mm 6 m/s 753 mmHg 82%
15:00 +2°C° 0 mm 6 m/s 753 mmHg 83%
16:00 +2°C° 0 mm 5 m/s 752 mmHg 84%
17:00 +1°C° 0 mm 6 m/s 752 mmHg 84%
18:00 +1°C° 0 mm 6 m/s 752 mmHg 84%
19:00 +1°C° 0 mm 6 m/s 752 mmHg 84%
20:00 +1°C° 0 mm 6 m/s 752 mmHg 84%
21:00 +1°C° 0 mm 6 m/s 752 mmHg 85%
22:00 +1°C° 0 mm 6 m/s 752 mmHg 85%
23:00 +1°C° 0 mm 6 m/s 752 mmHg 84%

22 Janeiro, Sexta-feira

Tempo Temperatura Precipitação Vento Pressão Humidade
00:00 +1°C° 0 mm 6 m/s 752 mmHg 83%
01:00 0°C° 0 mm 7 m/s 751 mmHg 83%
02:00 +2°C° 0 mm 7 m/s 751 mmHg 82%
03:00 +2°C° 0 mm 7 m/s 750 mmHg 82%
04:00 +2°C° 0 mm 7 m/s 750 mmHg 82%
05:00 +3°C° 0 mm 7 m/s 750 mmHg 82%
06:00 +3°C° 0 mm 7 m/s 750 mmHg 81%
07:00 +2°C° 0 mm 8 m/s 749 mmHg 81%
08:00 +4°C° 0 mm 8 m/s 749 mmHg 79%
09:00 +4°C° 0 mm 8 m/s 749 mmHg 77%
10:00 +5°C° 0 mm 8 m/s 748 mmHg 75%
11:00 +6°C° 0 mm 8 m/s 748 mmHg 74%
12:00 +7°C° 0 mm 8 m/s 747 mmHg 73%
13:00 +7°C° 0 mm 8 m/s 747 mmHg 71%
14:00 +7°C° 0 mm 8 m/s 746 mmHg 72%
15:00 +6°C° 0 mm 8 m/s 745 mmHg 73%
16:00 +6°C° 0 mm 8 m/s 745 mmHg 75%
17:00 +6°C° 0.3 mm 8 m/s 745 mmHg 75%
18:00 +6°C° 0.3 mm 9 m/s 745 mmHg 75%
19:00 +5°C° 0.3 mm 9 m/s 744 mmHg 75%
20:00 +5°C° 0.1 mm 9 m/s 744 mmHg 79%
21:00 +5°C° 0.1 mm 9 m/s 744 mmHg 82%
22:00 +5°C° 0.1 mm 9 m/s 744 mmHg 85%
23:00 +5°C° 1.1 mm 8 m/s 744 mmHg 87%

23 Janeiro, Sábado

Tempo Temperatura Precipitação Vento Pressão Humidade
00:00 +5°C° 1.1 mm 8 m/s 744 mmHg 88%
01:00 +5°C° 1.1 mm 7 m/s 744 mmHg 90%
02:00 +5°C° 0.1 mm 7 m/s 745 mmHg 90%
03:00 +5°C° 0.1 mm 6 m/s 745 mmHg 90%
04:00 +6°C° 0.1 mm 5 m/s 745 mmHg 90%
05:00 +5°C° 0 mm 4 m/s 745 mmHg 91%
06:00 +5°C° 0 mm 3 m/s 745 mmHg 91%
07:00 +5°C° 0 mm 2 m/s 746 mmHg 92%
08:00 +5°C° 0 mm 2 m/s 746 mmHg 90%
09:00 +6°C° 0 mm 2 m/s 746 mmHg 89%
10:00 +6°C° 0 mm 2 m/s 746 mmHg 88%
11:00 +6°C° 0 mm 2 m/s 746 mmHg 86%
12:00 +6°C° 0 mm 2 m/s 746 mmHg 84%
13:00 +7°C° 0 mm 2 m/s 746 mmHg 82%
14:00 +6°C° 0.1 mm 2 m/s 746 mmHg 83%
15:00 +7°C° 0.1 mm 1 m/s 745 mmHg 85%
16:00 +6°C° 0.1 mm 0 m/s 745 mmHg 86%
17:00 +5°C° 0 mm 0 m/s 744 mmHg 87%
18:00 +5°C° 0 mm 0 m/s 744 mmHg 87%
19:00 +5°C° 0 mm 0 m/s 744 mmHg 88%
20:00 +5°C° 0 mm 0 m/s 744 mmHg 89%
21:00 +5°C° 0 mm 0 m/s 744 mmHg 90%
22:00 +4°C° 0 mm 0 m/s 743 mmHg 90%
23:00 +5°C° 0.1 mm 1 m/s 743 mmHg 88%
Mostrar mais

Necessitamos do seu Consentimento

A Meteoprog e os seus Fornecedores de Serviços podem armazenar e aceder a dados pessoais como cookies, identificadores do dispositivo ou outras tecnologias semelhantes existentes no seu dispositivo e processar estes dados para personalizar conteúdos e anúncios, assim como funcionalidades nas redes sociais e análise de tráfego.

  • Armazenar e/ou aceder a informações no seu dispositivo

    Os cookies, identificadores do dispositivo ou outras informações podem ser armazenados ou acedidos no seu dispositivo, para os fins acima indicados.

  • Anúncios e conteúdos personalizados, medição de anúncios e conteúdos, dados sobre o público-alvo e desenvolvimento de produtos

    Os anúncios e os conteúdos podem ser personalizados com base num perfil. Podem ser adicionados dados adicionais para uma maior personalização dos anúncios e dos conteúdos. A eficácia dos anúncios e dos conteúdos pode ser medida. Podem ser obtidas informações sobre o público que visualizou os anúncios e os conteúdos. Estes dados podem ser usados para desenvolver ou melhorar sistemas, softwares ou a experiência do utilizador.

Ao clicar em "Eu concordo”, permitirá o uso de cookies, identificadores do dispositivo e web beacons mencionados ou outras tecnologias semelhantes. As configurações do navegador do seu dispositivo podem ser alteradas.

Para certos fins, podem ser invocados interesses legítimos ao invés de consentimento. Pode ler mais informação sobre este assunto na nossa Política de Privacidade e Cookies.